Zurück zum Katalog

SL-8 DEB

AktivLEO
NORAD 18274·DEBRIS·🇷🇺 Russia

Gestartet Jul 16, 1986 von Plesetsk Cosmodrome

Loading…

Nächste Überflüge (nächste 24 Stunden)

TLE

AktuellSource: Space-Track

Epoche: Sep 14, 2026, 13:27 UTC

1 18274U 86052F   26257.56059828  .00001474  00000-0  24095-3 0  9997
2 18274  74.0420 301.4119 0022606 180.6281 331.2424 14.71663184121321

Verfolge SL-8 DEB in Echtzeit mit AllMySat

Download on the App Store